User: anonymous   Login
Location: Melbourne
(37.8666°S, 145.1333°E)
Time: 09:09:48
(UTC+10:00)
Language:

ATLAS CENTAUR R/B - Orbit

View from above orbital plane
View from above orbital plane
View from above satellite
View from above satellite

Ground track
Ground track

The orbit data is extracted from the following two-line orbital elements,

1 28385U 04034B   16091.20391995 0.00052500  00000-0  10019-2 0    00
2 28385  57.3390 119.7392 3808439 255.3433  60.2776  7.88880991    03
Epoch (UTC): 31 March 2016 04:53:38
Eccentricity: 0.3808439
inclination: 57.3390°
perigee height: 221 km
apogee height: 8340 km
right ascension of ascending node: 119.7392°
argument of perigee: 255.3433°
revolutions per day: 7.88880991
mean anomaly at epoch: 60.2776°
orbit number at epoch: 0

The dashed part of the orbit path shows where the satellite is in the earth's shadow,  

DLR